Tracking 31013 objects as of 10-Jul-2025
HD Live streaming from Space Station
objects crossing your sky now

FENGYUN 1C DEB

Track FENGYUN 1C DEB now!
10-day predictions


NORAD ID: 41828
Int'l Code: 1999-025EYF
Perigee: 719.4 km
Apogee: 775.0 km
Inclination: 98.9 °
Period: 99.6 minutes
Semi major axis: 7118 km
RCS: Unknown
Launch date: May 10, 1999
Source: People's Republic of China (PRC)
Launch site: Taiyaun Space Center, China (TSC)

Note: This is SATELLITE DEBRIS
Your satellite tracking list
Your tracking list is empty




NASA's NSSDC Master Catalog

Two Line Element Set (TLE):
1 41828U 99025EYF 25190.27327127  .00006424  00000-0  18142-2 0  9990
2 41828  98.9235 309.6548 0039089 279.5554  80.1220 14.45593606451996
Source of the keplerian elements: AFSPC